Stations météo

réclame
Mon MeteoGroup
Rotterdam Zestienhoven, Pays-Bas (6344): Température de l'air & dewpoint: 25.09.2020 18:00:00 - 01.10.2020 18:00:00 (CEST)Rotterdam Zestienhoven, Pays-Bas (6344): Température de l'air 5cm: 25.09.2020 18:00:00 - 01.10.2020 18:00:00 (CEST)Rotterdam Zestienhoven, Pays-Bas (6344): Vitesse du vent & gusts: 25.09.2020 18:00:00 - 01.10.2020 18:00:00 (CEST)Rotterdam Zestienhoven, Pays-Bas (6344): Direction du vent: 25.09.2020 18:00:00 - 01.10.2020 18:00:00 (CEST)Rotterdam Zestienhoven, Pays-Bas (6344): reduced air pressure: 25.09.2020 18:00:00 - 01.10.2020 18:00:00 (CEST)Rotterdam Zestienhoven, Pays-Bas (6344): visibility: 25.09.2020 18:00:00 - 01.10.2020 18:00:00 (CEST)Rotterdam Zestienhoven, Pays-Bas (6344): Quantités de précipitations: 25.09.2020 18:00:00 - 01.10.2020 18:00:00 (CEST)
Date & Time tt [°C] td [°C] tt 5cm [°C] ff [km/h] ff [knt] fx [km/h] fx [knt] dd ppp [hPa] vv [km] rr [mm]
01.10.2020 18:00:00 12,9 11,2 12,6 18 10 29 16 SW 996,9 10 1,5
01.10.2020 17:00:00 13,3 12,3 13,0 15 8 36 19 SW 997,6 10 0,8
01.10.2020 16:00:00 13,1 12,1 13,2 21 11 43 23 SW 996,7 10 1,3
01.10.2020 15:00:00 14,9 13,0 14,6 26 14 40 21 SE 996,1 10 0,0
01.10.2020 14:00:00 14,6 13,2 14,5 26 14 40 21 SE 996,9 10 0,0
01.10.2020 13:00:00 14,6 13,4 14,4 22 12 43 23 SSE 997,6 10 0,7
01.10.2020 12:00:00 15,1 13,7 15,3 21 11 36 19 SSE 998,1 10 0,2
01.10.2020 11:00:00 14,8 13,7 14,7 21 11 29 16 SE 998,6 10 1,1
01.10.2020 10:00:00 14,8 13,7 14,6 21 11 32 18 SE 999,4 10 0,8
01.10.2020 09:00:00 14,9 13,6 14,5 16 9 25 14 SSE 1000,1 10 0,2
01.10.2020 08:00:00 15,2 13,6 14,5 16 9 32 18 SSE 1000,7 10 0,0
01.10.2020 07:00:00 15,3 13,5 14,6 15 8 25 14 SSE 1001,1 10 0,1
01.10.2020 06:00:00 15,7 13,4 15,1 18 10 29 16 SSE 1002,1 10 0,0
01.10.2020 05:00:00 15,9 13,4 15,1 18 10 29 16 SSE 1002,9 10 0,0
01.10.2020 04:00:00 15,8 13,5 15,2 16 9 29 16 SSE 1003,7 10 0,0
01.10.2020 03:00:00 16,1 13,3 15,4 18 10 29 16 SSE 1004,5 10 0,0
01.10.2020 02:00:00 16,2 13,5 15,5 22 12 32 18 SSE 1005,5 39 0,0
01.10.2020 01:00:00 16,3 13,3 15,4 18 10 29 16 SSE 1006,3 10 0,0
01.10.2020 00:00:00 16,4 13,4 15,6 22 12 29 16 SSE 1007,0 10 0,0
30.09.2020 23:00:00 16,5 13,6 15,6 15 8 25 14 SSE 1007,8 10 0,0
30.09.2020 22:00:00 16,5 14,0 15,7 13 7 22 12 SSE 1008,2 10 0,0
30.09.2020 21:00:00 17,0 13,9 16,0 13 7 22 12 SSE 1008,5 10 0,0
30.09.2020 20:00:00 17,3 14,0 16,3 15 8 22 12 SSE 1009,1 10 0,0
30.09.2020 19:00:00 17,7 14,2 16,7 11 6 22 12 SSE 1009,5 10 0,0
30.09.2020 18:00:00 18,0 14,2 17,5 13 7 29 16 S 1009,8 10 0,0
30.09.2020 17:00:00 17,9 14,3 17,6 18 10 32 18 S 1010,4 10 0,0
30.09.2020 16:00:00 18,5 14,6 18,6 21 11 36 19 S 1010,6 10 0,0
30.09.2020 15:00:00 18,4 15,3 17,7 18 10 29 16 S 1011,1 10 0,0
30.09.2020 14:00:00 17,2 15,1 18,0 16 9 29 16 SSE 1011,9 9 0,0
30.09.2020 13:00:00 16,4 14,8 17,2 13 7 25 14 SSE 1012,5 10 0,0
30.09.2020 12:00:00 16,0 14,7 17,0 15 8 22 12 S 1013,0 10 0,1
30.09.2020 11:00:00 14,8 14,3 14,9 15 8 22 12 S 1013,6 4,5 0,8
30.09.2020 10:00:00 14,7 13,7 14,5 11 6 18 10 S 1014,0 5 0,3
30.09.2020 09:00:00 14,4 13,4 14,0 13 7 22 12 S 1014,0 10 0,0
30.09.2020 08:00:00 14,0 13,4 13,2 11 6 22 12 S 1013,9 8 0,0
30.09.2020 07:00:00 13,5 13,0 12,7 11 6 18 10 S 1014,0 5 0,0
30.09.2020 06:00:00 13,7 13,2 12,5 9 5 14 8 S 1014,2 4,5 0,0
30.09.2020 05:00:00 13,5 13,0 12,8 11 6 18 10 S 1014,5 4,8 0,0
30.09.2020 04:00:00 12,5 12,2 10,9 5 3 11 6 SSW 1015,0 6 0,0
30.09.2020 03:00:00 12,9 12,6 11,5 9 5 11 6 SSW 1015,2 7 0,0
30.09.2020 02:00:00 13,5 12,9 12,2 21 11 29 16 SSE 1015,3 10 0,0
30.09.2020 01:00:00 14,6 13,5 13,0 13 7 22 12 SSW 1015,6 10 0,0
30.09.2020 00:00:00 14,3 13,3 13,1 13 7 22 12 SSW 1015,6 10 0,0
29.09.2020 23:00:00 15,6 14,1 14,6 13 7 25 14 SW 1015,8 10 0,0
29.09.2020 22:00:00 16,1 15,4 15,5 5 3 14 8 S 1015,9 7 0,4
29.09.2020 21:00:00 15,8 15,0 15,4 9 5 14 8 S 1015,8 7 2,5
29.09.2020 20:00:00 16,4 13,4 15,4 8 4 11 6 SSE 1015,8 10 0,2
29.09.2020 19:00:00 16,4 13,1 16,0 4 2 11 6 - 1015,7 10 0,0
29.09.2020 18:00:00 16,7 11,7 17,0 8 4 14 8 SW 1015,6 10 0,0
29.09.2020 17:00:00 17,5 12,2 17,7 8 4 14 8 W 1015,6 10 0,0
29.09.2020 16:00:00 18,4 12,2 19,3 9 5 18 10 W 1015,6 10 0,0
29.09.2020 15:00:00 17,9 9,4 19,4 11 6 14 8 W 1015,7 10 0,0
29.09.2020 14:00:00 17,8 11,4 20,9 11 6 18 10 WSW 1015,9 10 0,0
29.09.2020 13:00:00 17,5 11,7 18,9 9 5 18 10 W 1015,9 10 0,0
29.09.2020 12:00:00 17,1 9,7 18,9 9 5 18 10 W 1015,8 10 0,0
29.09.2020 11:00:00 16,2 9,0 17,3 11 6 18 10 W 1015,5 10 0,0
29.09.2020 10:00:00 15,5 12,0 15,7 8 4 11 6 W 1015,2 10 0,0
29.09.2020 09:00:00 13,4 11,5 12,8 8 4 14 8 WSW 1014,6 10 0,0
29.09.2020 08:00:00 14,0 12,1 13,3 11 6 14 8 W 1014,0 10 0,0
29.09.2020 07:00:00 14,1 12,4 13,4 8 4 14 8 W 1013,7 10 0,0
29.09.2020 06:00:00 14,3 12,9 13,8 8 4 14 8 W 1013,3 10 0,0
29.09.2020 05:00:00 14,5 13,6 14,1 11 6 22 12 W 1013,0 10 0,0
29.09.2020 04:00:00 14,7 14,1 14,4 9 5 18 10 W 1012,9 10 0,0
29.09.2020 03:00:00 14,5 14,3 14,4 11 6 22 12 WNW 1012,6 3,8 0,1
29.09.2020 02:00:00 14,7 14,4 14,7 13 7 25 14 WNW 1012,3 3,2 0,1
29.09.2020 01:00:00 15,2 14,9 15,0 15 8 25 14 NW 1012,2 7 0,1
29.09.2020 00:00:00 15,5 15,2 15,3 15 8 22 12 NW 1012,0 3,9 1,3
28.09.2020 23:00:00 14,4 14,3 14,4 2 1 7 4 SSW 1011,8 2,8 1,2
28.09.2020 22:00:00 14,4 14,3 14,4 5 3 11 6 SE 1011,2 5 0,4
28.09.2020 21:00:00 14,6 14,4 14,6 11 6 14 8 SSE 1010,8 9 0,3
28.09.2020 20:00:00 15,1 15,0 15,1 9 5 14 8 SE 1010,2 7 0,4
28.09.2020 19:00:00 15,9 15,9 16,0 9 5 18 10 NNW 1009,5 1,9 1,2
28.09.2020 18:00:00 16,2 15,9 16,3 5 3 11 6 NNW 1008,9 1,8 0,9
28.09.2020 17:00:00 16,1 16,0 16,3 2 1 7 4 - 1008,6 2,1 0,8
28.09.2020 16:00:00 16,5 15,9 16,9 5 3 7 4 ENE 1008,4 5 0,0
28.09.2020 15:00:00 16,4 16,0 16,5 5 3 14 8 E 1008,2 2,8 0,0
28.09.2020 14:00:00 16,3 16,0 16,9 8 4 11 6 SE 1008,2 5 0,0
28.09.2020 13:00:00 16,2 15,8 16,6 4 2 7 4 - 1008,0 5 0,0
28.09.2020 12:00:00 15,9 15,5 16,2 4 2 7 4 S 1007,8 6 0,0
28.09.2020 11:00:00 15,5 15,4 15,8 4 2 4 2 SSW 1007,5 8 0,0
28.09.2020 10:00:00 15,1 15,0 15,3 4 2 7 4 - 1007,3 6 1,3
28.09.2020 09:00:00 15,0 14,9 15,1 5 3 22 12 E 1007,0 1,7 1,5
28.09.2020 08:00:00 16,4 16,2 15,2 4 2 22 12 - 1006,5 1,7 1,3
28.09.2020 07:00:00 14,6 14,5 14,4 5 3 14 8 SSW 1006,6 2,7 1,7
28.09.2020 06:00:00 14,1 13,9 14,0 11 6 14 8 SW 1006,7 2,7 1,5
28.09.2020 05:00:00 13,8 13,5 13,6 8 4 11 6 SSW 1007,0 2,8 0,8
28.09.2020 04:00:00 13,5 13,1 13,5 8 4 11 6 SSW 1007,5 2,6 0,3
28.09.2020 03:00:00 13,9 13,2 13,7 5 3 7 4 SSW 1007,8 6 0,0
28.09.2020 02:00:00 13,6 13,2 13,5 4 2 7 4 WSW 1008,1 6 0,0
28.09.2020 01:00:00 13,6 13,4 13,4 4 2 7 4 W 1008,2 7 0,0
28.09.2020 00:00:00 13,6 12,8 13,4 2 1 4 2 NE 1008,2 10 0,0
27.09.2020 23:00:00 13,5 13,1 13,3 4 2 7 4 - 1008,0 10 0,0
27.09.2020 22:00:00 13,8 12,7 13,4 4 2 11 6 NE 1007,6 10 0,0
27.09.2020 21:00:00 13,8 12,4 13,4 4 2 7 4 - 1007,2 10 0,0
27.09.2020 20:00:00 13,7 12,2 13,3 5 3 11 6 N 1006,8 10 0,0
27.09.2020 19:00:00 13,7 11,9 13,4 13 7 18 10 E 1006,5 10 0,0
27.09.2020 18:00:00 14,8 11,7 14,6 11 6 18 10 NE 1006,1 10 0,0
27.09.2020 17:00:00 15,5 11,2 15,4 13 7 22 12 NE 1005,7 10 0,0
27.09.2020 16:00:00 15,5 11,4 15,4 15 8 25 14 NNE 1005,3 10 0,0
27.09.2020 15:00:00 15,9 11,4 16,7 16 9 29 16 NE 1004,7 10 0,0
27.09.2020 14:00:00 15,5 11,6 15,0 24 13 32 18 NE 1004,3 10 0,0
27.09.2020 13:00:00 15,4 11,5 15,7 21 11 32 18 NE 1003,7 10 0,0
27.09.2020 12:00:00 15,1 12,2 15,4 22 12 32 18 NE 1003,0 10 0,0
27.09.2020 11:00:00 15,7 12,6 15,1 21 11 43 23 NE 1002,2 10 0,0
27.09.2020 10:00:00 15,5 12,0 15,5 28 15 50 27 NNE 1001,0 10 0,1
27.09.2020 09:00:00 16,9 14,9 16,4 28 15 47 25 N 999,6 10 0,0
27.09.2020 08:00:00 16,6 14,9 16,0 29 16 43 23 N 998,4 10 0,0
27.09.2020 07:00:00 16,1 14,7 15,5 26 14 50 27 N 998,1 10 0,0
27.09.2020 06:00:00 15,7 14,6 15,1 35 19 54 29 N 997,6 10 0,1
27.09.2020 05:00:00 15,2 14,5 14,8 34 18 61 33 N 997,4 5 1,2
27.09.2020 04:00:00 14,6 13,7 14,1 37 20 61 33 NNW 997,5 8 1,4
27.09.2020 03:00:00 13,9 13,1 13,4 34 18 61 33 NNW 998,2 6 2,6
27.09.2020 02:00:00 13,4 12,1 12,7 31 17 50 27 NNW 999,2 10 2,2
27.09.2020 01:00:00 13,0 11,0 12,4 28 15 47 25 NNW 1000,5 10 1,6
27.09.2020 00:00:00 13,4 10,9 12,6 24 13 54 29 N 1000,7 10 0,1
26.09.2020 23:00:00 13,2 11,5 12,6 16 9 32 18 NNW 1001,4 10 0,2
26.09.2020 22:00:00 13,1 11,8 12,6 18 10 43 23 N 1001,8 10 1,1
26.09.2020 21:00:00 13,3 12,3 13,0 22 12 43 23 NNW 1001,6 10 1,6
26.09.2020 20:00:00 13,7 11,4 12,4 9 5 18 10 NW 1001,6 10 0,0
26.09.2020 19:00:00 14,6 10,7 13,6 9 5 25 14 N 1001,5 10 0,0
26.09.2020 18:00:00 15,6 10,6 15,2 15 8 29 16 N 1001,4 10 0,0
26.09.2020 17:00:00 16,2 10,4 16,2 16 9 29 16 N 1001,1 10 0,0
26.09.2020 16:00:00 14,7 11,5 14,0 8 4 32 18 - 1000,9 10 0,4
26.09.2020 15:00:00 15,2 10,6 15,6 16 9 25 14 N 1000,8 10 0,4
26.09.2020 14:00:00 15,3 9,6 16,4 5 3 14 8 N 1000,3 10 0,0
26.09.2020 13:00:00 14,8 10,7 15,4 5 3 11 6 NW 1000,2 10 0,0
26.09.2020 12:00:00 14,5 10,4 16,7 5 3 14 8 - 999,8 10 0,0
26.09.2020 11:00:00 13,1 9,9 15,2 8 4 18 10 N 999,3 10 1,8
26.09.2020 10:00:00 11,6 9,9 11,9 2 1 18 10 - 999,5 10 2,6
26.09.2020 09:00:00 12,0 9,3 11,2 8 4 14 8 W 998,9 10 0,0
26.09.2020 08:00:00 8,4 7,1 7,3 4 2 14 8 - 998,2 10 0,0
26.09.2020 07:00:00 9,6 7,5 7,3 8 4 18 10 NNW 997,9 10 0,0
26.09.2020 06:00:00 10,3 8,7 9,2 11 6 22 12 N 996,9 10 0,0
26.09.2020 05:00:00 10,6 9,4 9,6 8 4 18 10 NNW 996,3 10 0,0
26.09.2020 04:00:00 10,3 9,7 8,5 9 5 18 10 NNW 995,6 10 0,0
26.09.2020 03:00:00 10,5 9,8 9,7 9 5 18 10 NNW 994,9 10 0,0
26.09.2020 02:00:00 9,8 9,5 9,0 9 5 14 8 NNW 993,7 9 0,0
26.09.2020 01:00:00 8,5 8,2 6,6 4 2 11 6 - 992,6 10 0,0
26.09.2020 00:00:00 10,1 9,3 9,0 8 4 22 12 N 991,6 10 0,0
25.09.2020 23:00:00 11,4 10,2 10,6 11 6 58 31 NW 991,1 10 0,0
25.09.2020 22:00:00 12,7 11,3 12,0 44 24 76 41 WNW 990,0 9 0,7
25.09.2020 21:00:00 12,6 11,2 11,1 37 20 65 35 WSW 988,9 3,2 4,9
25.09.2020 20:00:00 12,4 9,5 11,3 15 8 29 16 W 991,5 10 0,6
25.09.2020 19:00:00 12,8 11,0 12,0 21 11 43 23 SW 991,1 10 0,2
25.09.2020 18:00:00 13,0 11,0 12,4 31 17 50 27 WSW 991,3 10 1,9

tt = Température de l'air
td = dewpoint
tt 5cm = Température de l'air 5cm
ff = Vitesse du vent
fx = gusts
dd = Direction du vent
ppp = reduced air pressure
vv = visibility
rr = Quantités de précipitations

stations d'obs. à proximité